Change the Weather History Date:

Thursday, October 31, 2013

  Actual Average Record
Temperature  
Mean Temperature 37 °F 38 °F  
Max Temperature 47 °F 49 °F 77 °F (1999)
Min Temperature 27 °F 26 °F -10 °F (1991)
Degree Days  
Heating Degree Days 28 27  
Month to date heating degree days 707 625  
Since 1 July heating degree days 838 912  
Cooling Degree Days 0 0  
Month to date cooling degree days 0 1  
Year to date cooling degree days 555 520  
Moisture  
Dew Point 31 °F    
Average Humidity 76    
Maximum Humidity 92    
Minimum Humidity 60    
Precipitation  
Precipitation T in 0.03 in 0.58 in (1974)
Month to date precipitation 4.73 1.25  
Year to date precipitation 25.40 16.65  
Snow  
Snow 0.00 in 0.20 in 4.70 in (1943)
Month to date snowfall 1.0 2.2  
Since 1 July snowfall 1.0 2.4  
Since 1 September snowfall 1.0 2.4  
Snow Depth 0.00 in    
Sea Level Pressure  
Sea Level Pressure 29.62 in    
Wind  
Wind Speed 8 mph (West)    
Max Wind Speed 22 mph    
Max Gust Speed 27 mph    
Visibility 10 miles    
Events Rain    
T = Trace of Precipitation, MM = Missing Value Source: NWS Daily Summary

Daily Weather History Graph

Daily Weather History Graph

Search for Another Location

Airport or City:

Trip Planner

Search our weather history database for the weather conditions in past years. The results will help you decide how hot, cold, wet, or windy it might be!

Date:

Astronomy

Oct. 31, 2013 Rise Set
Actual Time 8:24 AM CDT 6:28 PM CDT
Civil Twilight 7:52 AM CDT 6:59 PM CDT
Nautical Twilight 7:16 AM CDT 7:35 PM CDT
Astronomical Twilight 6:41 AM CDT 8:10 PM CDT
Moon 5:05 AM CDT (10/31) 4:56 PM CDT (10/31)
Length of Visible Light 11h 07m
Length of Day
10h 04m
Waning Crescent, 10% of the Moon is Illuminated
Oct 31
Waning Crescent
Nov 3
New
Nov 9
First Quarter
Nov 17
Full
Nov 25
Last Quarter

Hourly Weather History & Observations

Time (CDT) Temp. Windchill Dew Point Humidity Pressure Visibility Wind Dir Wind Speed Gust Speed Precip Events Conditions
12:52 AM 32.0 °F 28.7 °F 30.0 °F 92% 29.70 in 10.0 mi WSW 3.5 mph - N/A   Clear
1:52 AM 30.0 °F 24.1 °F 28.0 °F 92% 29.68 in 10.0 mi West 5.8 mph - N/A   Clear
2:52 AM 28.9 °F 22.8 °F 27.0 °F 92% 29.67 in 10.0 mi WSW 5.8 mph - N/A   Clear
3:52 AM 28.9 °F 25.2 °F 27.0 °F 92% 29.65 in 10.0 mi SW 3.5 mph - N/A   Clear
4:52 AM 28.0 °F 21.7 °F 26.1 °F 92% 29.63 in 10.0 mi SW 5.8 mph - N/A   Clear
5:52 AM 28.0 °F 24.2 °F 26.1 °F 92% 29.63 in 10.0 mi SW 3.5 mph - N/A   Clear
6:52 AM 27.0 °F 21.6 °F 25.0 °F 92% 29.63 in 10.0 mi West 4.6 mph - N/A   Clear
7:52 AM 27.0 °F 19.5 °F 25.0 °F 92% 29.62 in 10.0 mi West 6.9 mph - N/A   Clear
8:52 AM 30.0 °F 22.4 °F 26.1 °F 85% 29.61 in 10.0 mi WNW 8.1 mph - N/A   Clear
9:52 AM 33.1 °F 28.7 °F 28.0 °F 82% 29.61 in 10.0 mi West 4.6 mph - N/A   Clear
10:52 AM 37.9 °F 30.5 °F 32.0 °F 79% 29.60 in 10.0 mi NW 11.5 mph - N/A   Clear
11:52 AM 41.0 °F 33.1 °F 33.1 °F 73% 29.61 in 10.0 mi WNW 15.0 mph - N/A   Clear
12:52 PM 43.0 °F 36.8 °F 33.1 °F 68% 29.60 in 10.0 mi WNW 11.5 mph - N/A   Clear
1:52 PM 45.0 °F 37.4 °F 32.0 °F 60% 29.58 in 10.0 mi WNW 18.4 mph 23.0 mph N/A   Clear
2:52 PM 46.0 °F 39.6 °F 33.1 °F 61% 29.57 in 10.0 mi NW 15.0 mph - N/A   Scattered Clouds
3:52 PM 45.0 °F 38.2 °F 34.0 °F 65% 29.57 in 10.0 mi NW 15.0 mph - N/A   Overcast
4:52 PM 43.0 °F 37.2 °F 37.0 °F 80% 29.57 in 10.0 mi West 10.4 mph - 0.00 in Rain Light Rain
5:52 PM 43.0 °F 39.5 °F 37.0 °F 80% 29.58 in 10.0 mi West 5.8 mph - 0.00 in   Overcast
6:52 PM 42.1 °F 36.6 °F 37.0 °F 82% 29.60 in 10.0 mi WNW 9.2 mph - N/A   Mostly Cloudy
7:52 PM 41.0 °F 35.8 °F 35.1 °F 79% 29.60 in 10.0 mi WNW 8.1 mph - N/A   Mostly Cloudy
8:52 PM 39.9 °F 35.1 °F 34.0 °F 79% 29.60 in 10.0 mi West 6.9 mph - N/A   Clear
9:52 PM 39.9 °F 36.7 °F 33.1 °F 77% 29.59 in 10.0 mi West 4.6 mph - N/A   Clear
10:52 PM 39.0 °F 36.8 °F 33.1 °F 79% 29.60 in 10.0 mi West 3.5 mph - N/A   Clear
11:52 PM 41.0 °F 35.2 °F 33.1 °F 73% 29.61 in 10.0 mi West 9.2 mph - N/A   Partly Cloudy